QTR8596 KORD-KIAH

Flight info

Callsign QTR8596
Flight time 2h 10m
Altitude 34000
Route ACITO ADELL ARLYN STL FSM BYP CVE DRLLR5
Aircraft B77L/H-SDE1E2E3FGHIJ2J3J4J5M1RWXY/LB1D1

Departure

Time 2026-05-04 14:25
Airport Chicago O'Hare International Airport (KORD)

Arrival

Time 2026-05-04 16:36
Airport George Bush Intercontinental Airport (KIAH)
Time Latitude Longitude Altitude Speed Heading
2026-05-04 14:01 41.99407 -87.89410 673 ft 0 kts 180°
2026-05-04 14:14 41.99408 -87.89410 673 ft 2 kts 180°
2026-05-04 14:14 41.99427 -87.89410 673 ft 4 kts 180°
2026-05-04 14:15 41.99481 -87.89410 673 ft 4 kts 180°
2026-05-04 14:15 41.99512 -87.89409 673 ft 0 kts 180°
2026-05-04 14:18 41.99511 -87.89409 673 ft 1 kts 181°
2026-05-04 14:18 41.99508 -87.89482 673 ft 10 kts 279°
2026-05-04 14:19 41.99467 -87.89759 674 ft 21 kts 225°
2026-05-04 14:19 41.99341 -87.89902 671 ft 27 kts 219°
2026-05-04 14:19 41.99226 -87.90025 673 ft 15 kts 206°
2026-05-04 14:19 41.99124 -87.90038 673 ft 15 kts 180°
2026-05-04 14:20 41.99029 -87.90038 673 ft 9 kts 180°
2026-05-04 14:20 41.98996 -87.89986 673 ft 8 kts 98°
2026-05-04 14:20 41.98994 -87.89910 673 ft 8 kts 90°
2026-05-04 14:21 41.98995 -87.89758 673 ft 8 kts 90°
2026-05-04 14:21 41.98994 -87.89683 673 ft 8 kts 90°
2026-05-04 14:21 41.98994 -87.89607 673 ft 8 kts 90°
2026-05-04 14:21 41.98993 -87.89531 673 ft 8 kts 91°
2026-05-04 14:22 41.98949 -87.89494 673 ft 8 kts 175°
2026-05-04 14:22 41.98892 -87.89495 671 ft 8 kts 180°
2026-05-04 14:22 41.98833 -87.89495 672 ft 9 kts 179°
2026-05-04 14:22 41.98773 -87.89494 673 ft 9 kts 179°
2026-05-04 14:23 41.98655 -87.89494 673 ft 9 kts 180°
2026-05-04 14:23 41.98595 -87.89495 673 ft 9 kts 180°
2026-05-04 14:23 41.98531 -87.89495 674 ft 9 kts 180°
2026-05-04 14:24 41.98467 -87.89496 675 ft 9 kts 180°
2026-05-04 14:24 41.98405 -87.89508 674 ft 9 kts 212°
2026-05-04 14:24 41.98389 -87.89622 676 ft 23 kts 269°
2026-05-04 14:24 41.98390 -87.90031 675 ft 75 kts 270°
2026-05-04 14:25 41.98389 -87.91043 674 ft 138 kts 270°
2026-05-04 14:25 41.98368 -87.94295 1228 ft 180 kts 263°
2026-05-04 14:25 41.98072 -87.95915 1722 ft 183 kts 236°
2026-05-04 14:26 41.97112 -87.97094 2070 ft 192 kts 200°
2026-05-04 14:26 41.95808 -87.97322 2577 ft 196 kts 180°
2026-05-04 14:26 41.94387 -87.97186 2793 ft 220 kts 177°
2026-05-04 14:26 41.92779 -87.96955 3037 ft 241 kts 179°
2026-05-04 14:27 41.91127 -87.97280 3479 ft 243 kts 202°
2026-05-04 14:27 41.89524 -87.98102 4138 ft 250 kts 202°
2026-05-04 14:27 41.87860 -87.98865 4922 ft 254 kts 201°
2026-05-04 14:27 41.86169 -87.99595 5670 ft 258 kts 200°
2026-05-04 14:28 41.84441 -88.00328 6397 ft 262 kts 200°
2026-05-04 14:28 41.82690 -88.01057 7149 ft 265 kts 200°
2026-05-04 14:28 41.80914 -88.01786 7881 ft 268 kts 200°
2026-05-04 14:28 41.79122 -88.02523 8563 ft 271 kts 200°
2026-05-04 14:29 41.75467 -88.04013 9969 ft 277 kts 200°
2026-05-04 14:29 41.71615 -88.05583 10679 ft 313 kts 201°
2026-05-04 14:30 41.69450 -88.06464 10875 ft 338 kts 200°
2026-05-04 14:30 41.67122 -88.07405 11186 ft 357 kts 200°
2026-05-04 14:30 41.62232 -88.09368 12627 ft 374 kts 201°
2026-05-04 14:31 41.59728 -88.10368 13456 ft 377 kts 201°
2026-05-04 14:31 41.54623 -88.12411 14990 ft 388 kts 201°
2026-05-04 14:32 41.49394 -88.14506 16507 ft 397 kts 201°
2026-05-04 14:32 41.46728 -88.15573 17214 ft 402 kts 201°
2026-05-04 14:32 41.44036 -88.16649 17905 ft 406 kts 201°
2026-05-04 14:32 41.41310 -88.17739 18581 ft 411 kts 201°
2026-05-04 14:33 41.38563 -88.18847 19262 ft 414 kts 202°
2026-05-04 14:33 41.35813 -88.20067 19917 ft 417 kts 203°
2026-05-04 14:33 41.33059 -88.21342 20529 ft 422 kts 204°
2026-05-04 14:33 41.30273 -88.22626 21140 ft 426 kts 203°
2026-05-04 14:34 41.27457 -88.23902 21743 ft 430 kts 203°
2026-05-04 14:34 41.24607 -88.25181 22330 ft 433 kts 203°
2026-05-04 14:34 41.21777 -88.26456 22871 ft 437 kts 203°
2026-05-04 14:34 41.18890 -88.27763 23429 ft 441 kts 203°
2026-05-04 14:35 41.15972 -88.29085 23983 ft 444 kts 203°
2026-05-04 14:35 41.13035 -88.30416 24514 ft 447 kts 203°
2026-05-04 14:35 41.10076 -88.31753 25018 ft 451 kts 203°
2026-05-04 14:35 41.07083 -88.33104 25502 ft 455 kts 203°
2026-05-04 14:36 41.04079 -88.34460 25952 ft 459 kts 203°
2026-05-04 14:36 41.01039 -88.35830 26408 ft 463 kts 203°
2026-05-04 14:36 40.97979 -88.37206 26884 ft 466 kts 203°
2026-05-04 14:36 40.94894 -88.38592 27319 ft 469 kts 204°
2026-05-04 14:37 40.92846 -88.39512 27613 ft 471 kts 204°
2026-05-04 14:37 40.88710 -88.41367 28179 ft 475 kts 204°
2026-05-04 14:37 40.85570 -88.42774 28600 ft 477 kts 204°
2026-05-04 14:37 40.82421 -88.44183 28989 ft 480 kts 204°
2026-05-04 14:38 40.79244 -88.45604 29341 ft 483 kts 204°
2026-05-04 14:38 40.77099 -88.46563 29561 ft 484 kts 204°
2026-05-04 14:38 40.73905 -88.47989 29981 ft 485 kts 204°
2026-05-04 14:38 40.70759 -88.49389 30496 ft 482 kts 204°
2026-05-04 14:39 40.67548 -88.50818 30984 ft 480 kts 204°
2026-05-04 14:39 40.64374 -88.52231 31392 ft 480 kts 204°
2026-05-04 14:39 40.61245 -88.53624 31795 ft 480 kts 204°
2026-05-04 14:40 40.54919 -88.56432 32537 ft 479 kts 204°
2026-05-04 14:40 40.51762 -88.57832 32916 ft 479 kts 204°
2026-05-04 14:40 40.48606 -88.59231 33280 ft 478 kts 204°
2026-05-04 14:40 40.45446 -88.60631 33606 ft 478 kts 203°
2026-05-04 14:41 40.42275 -88.62035 33715 ft 483 kts 203°
2026-05-04 14:41 40.39091 -88.63444 33758 ft 483 kts 203°
2026-05-04 14:41 40.32934 -88.66711 33779 ft 470 kts 214°
2026-05-04 14:42 40.27693 -88.71659 33780 ft 460 kts 228°
2026-05-04 14:42 40.23145 -88.77551 33784 ft 460 kts 229°
2026-05-04 14:43 40.18598 -88.83448 33790 ft 461 kts 229°
2026-05-04 14:43 40.14041 -88.89303 33783 ft 463 kts 229°
2026-05-04 14:44 40.09424 -88.95196 33786 ft 464 kts 229°
2026-05-04 14:44 40.04797 -89.01076 33766 ft 464 kts 229°
2026-05-04 14:45 40.00166 -89.06955 33781 ft 464 kts 229°
2026-05-04 14:45 39.95532 -89.12820 33787 ft 462 kts 229°
2026-05-04 14:46 39.90925 -89.18643 33763 ft 460 kts 229°
2026-05-04 14:46 39.86341 -89.24430 33783 ft 457 kts 229°
2026-05-04 14:47 39.81779 -89.30176 33785 ft 456 kts 229°
2026-05-04 14:47 39.77218 -89.35914 33797 ft 456 kts 229°
2026-05-04 14:48 39.72659 -89.41637 33796 ft 457 kts 229°
2026-05-04 14:48 39.68104 -89.47340 33798 ft 458 kts 229°
2026-05-04 14:49 39.63503 -89.53101 33795 ft 459 kts 229°
2026-05-04 14:49 39.58885 -89.58849 33799 ft 460 kts 229°
2026-05-04 14:50 39.54262 -89.64603 33797 ft 461 kts 229°
2026-05-04 14:50 39.49629 -89.70358 33802 ft 461 kts 229°
2026-05-04 14:51 39.44993 -89.76109 33807 ft 461 kts 229°
2026-05-04 14:51 39.40358 -89.81847 33817 ft 461 kts 229°
2026-05-04 14:52 39.35765 -89.87519 33811 ft 460 kts 229°
2026-05-04 14:52 39.31113 -89.93254 33823 ft 458 kts 229°
2026-05-04 14:53 39.26532 -89.98892 33825 ft 458 kts 229°
2026-05-04 14:53 39.21919 -90.04559 33821 ft 458 kts 229°
2026-05-04 14:54 39.17308 -90.10212 33826 ft 457 kts 229°
2026-05-04 14:54 39.12700 -90.15850 33834 ft 456 kts 229°
2026-05-04 14:55 39.08100 -90.21469 33836 ft 456 kts 229°
2026-05-04 14:55 39.03502 -90.27074 33824 ft 455 kts 229°
2026-05-04 14:56 38.98907 -90.32664 33823 ft 454 kts 229°
2026-05-04 14:56 38.94317 -90.38240 33824 ft 453 kts 229°
2026-05-04 14:57 38.89737 -90.43795 33825 ft 453 kts 229°
2026-05-04 14:57 38.85151 -90.49334 33822 ft 453 kts 229°
2026-05-04 14:58 38.80517 -90.54746 33832 ft 453 kts 228°
2026-05-04 14:58 38.75825 -90.60151 33837 ft 453 kts 228°
2026-05-04 14:59 38.71136 -90.65555 33829 ft 453 kts 228°
2026-05-04 15:00 38.64117 -90.73658 33822 ft 452 kts 228°
2026-05-04 15:00 38.60082 -90.78313 33823 ft 452 kts 228°
2026-05-04 15:01 38.56013 -90.82997 33829 ft 451 kts 228°
2026-05-04 15:01 38.51374 -90.88328 33836 ft 451 kts 228°
2026-05-04 15:02 38.46699 -90.93691 33829 ft 451 kts 228°
2026-05-04 15:02 38.42028 -90.99042 33831 ft 451 kts 228°
2026-05-04 15:03 38.37381 -91.04352 33841 ft 450 kts 228°
2026-05-04 15:03 38.32709 -91.09681 33846 ft 450 kts 228°
2026-05-04 15:04 38.28035 -91.15003 33854 ft 450 kts 228°
2026-05-04 15:04 38.23365 -91.20313 33853 ft 450 kts 228°
2026-05-04 15:05 38.18692 -91.25616 33854 ft 450 kts 228°
2026-05-04 15:05 38.14013 -91.30915 33846 ft 451 kts 228°
2026-05-04 15:06 38.09316 -91.36228 33852 ft 453 kts 228°
2026-05-04 15:07 38.02243 -91.44208 33853 ft 457 kts 228°
2026-05-04 15:07 37.97482 -91.49567 33846 ft 458 kts 228°
2026-05-04 15:08 37.92702 -91.54937 33844 ft 459 kts 228°
2026-05-04 15:08 37.87930 -91.60287 33840 ft 458 kts 228°
2026-05-04 15:09 37.83159 -91.65625 33831 ft 457 kts 228°
2026-05-04 15:09 37.78400 -91.70943 33834 ft 456 kts 227°
2026-05-04 15:10 37.71280 -91.78883 33831 ft 455 kts 227°
2026-05-04 15:11 37.64159 -91.86802 33838 ft 455 kts 227°
2026-05-04 15:11 37.59410 -91.92073 33833 ft 455 kts 227°
2026-05-04 15:12 37.54650 -91.97343 33830 ft 455 kts 227°
2026-05-04 15:12 37.49928 -92.02565 33835 ft 455 kts 227°
2026-05-04 15:13 37.45170 -92.07817 33839 ft 455 kts 227°
2026-05-04 15:13 37.40399 -92.13075 33852 ft 456 kts 227°
2026-05-04 15:14 37.35617 -92.18336 33854 ft 457 kts 227°
2026-05-04 15:14 37.30826 -92.23595 33862 ft 457 kts 227°
2026-05-04 15:15 37.26030 -92.28852 33870 ft 458 kts 227°
2026-05-04 15:15 37.21224 -92.34104 33868 ft 458 kts 227°
2026-05-04 15:16 37.14031 -92.41956 33877 ft 459 kts 227°
2026-05-04 15:17 37.06808 -92.49823 33884 ft 458 kts 227°
2026-05-04 15:17 36.99579 -92.57674 33883 ft 458 kts 227°
2026-05-04 15:18 36.94755 -92.62900 33900 ft 458 kts 226°
2026-05-04 15:19 36.87518 -92.70726 33902 ft 459 kts 226°
2026-05-04 15:19 36.80289 -92.78523 33906 ft 460 kts 226°
2026-05-04 15:20 36.75434 -92.83746 33916 ft 460 kts 226°
2026-05-04 15:20 36.70579 -92.88959 33918 ft 460 kts 226°
2026-05-04 15:21 36.65730 -92.94160 33927 ft 460 kts 226°
2026-05-04 15:22 36.58439 -93.01960 33925 ft 460 kts 226°
2026-05-04 15:22 36.51158 -93.09735 33933 ft 460 kts 226°
2026-05-04 15:23 36.46300 -93.14907 33949 ft 459 kts 226°
2026-05-04 15:23 36.41475 -93.20036 33956 ft 459 kts 227°
2026-05-04 15:24 36.31740 -93.30360 33929 ft 460 kts 227°
2026-05-04 15:25 36.26870 -93.35509 33926 ft 460 kts 227°
2026-05-04 15:26 36.19570 -93.43214 33930 ft 459 kts 227°
2026-05-04 15:26 36.13097 -93.50031 33931 ft 459 kts 227°
2026-05-04 15:27 36.05795 -93.57702 33933 ft 459 kts 227°
2026-05-04 15:28 35.98478 -93.65371 33930 ft 460 kts 227°
2026-05-04 15:29 35.91149 -93.73029 33928 ft 460 kts 227°
2026-05-04 15:30 35.74084 -93.90789 33947 ft 459 kts 227°
2026-05-04 15:31 35.66758 -93.98385 33947 ft 459 kts 227°
2026-05-04 15:32 35.54543 -94.11007 33932 ft 459 kts 227°
2026-05-04 15:34 35.42307 -94.23600 33937 ft 460 kts 228°
2026-05-04 15:34 35.35036 -94.31199 33938 ft 458 kts 230°
2026-05-04 15:35 35.27918 -94.39028 33938 ft 458 kts 231°
2026-05-04 15:36 35.20818 -94.46789 33936 ft 458 kts 230°
2026-05-04 15:36 35.16060 -94.51955 33961 ft 457 kts 231°
2026-05-04 15:37 35.11300 -94.57111 33951 ft 457 kts 231°
2026-05-04 15:37 35.06546 -94.62256 33962 ft 457 kts 231°
2026-05-04 15:38 35.01787 -94.67397 33964 ft 456 kts 231°
2026-05-04 15:38 34.97027 -94.72532 33962 ft 456 kts 231°
2026-05-04 15:39 34.92276 -94.77651 33968 ft 456 kts 231°
2026-05-04 15:40 34.85118 -94.85343 33956 ft 457 kts 231°
2026-05-04 15:40 34.80350 -94.90455 33961 ft 457 kts 232°
2026-05-04 15:41 34.75570 -94.95573 33953 ft 457 kts 232°
2026-05-04 15:41 34.70796 -95.00679 33954 ft 457 kts 232°
2026-05-04 15:42 34.66024 -95.05769 33964 ft 456 kts 232°
2026-05-04 15:42 34.61282 -95.10824 33964 ft 456 kts 232°
2026-05-04 15:43 34.56511 -95.15904 33969 ft 457 kts 232°
2026-05-04 15:43 34.51735 -95.20975 33970 ft 457 kts 232°
2026-05-04 15:44 34.46952 -95.26047 33973 ft 457 kts 232°
2026-05-04 15:44 34.42159 -95.31121 33973 ft 457 kts 232°
2026-05-04 15:45 34.37376 -95.36181 33976 ft 457 kts 232°
2026-05-04 15:45 34.32597 -95.41225 33988 ft 456 kts 232°
2026-05-04 15:46 34.27835 -95.46246 33977 ft 457 kts 232°
2026-05-04 15:46 34.23010 -95.51323 33981 ft 456 kts 232°
2026-05-04 15:47 34.18254 -95.56318 33991 ft 456 kts 232°
2026-05-04 15:47 34.13467 -95.61341 33990 ft 456 kts 232°
2026-05-04 15:48 34.08679 -95.66357 33993 ft 456 kts 232°
2026-05-04 15:48 34.01488 -95.73875 33989 ft 456 kts 232°
2026-05-04 15:49 33.96695 -95.78874 33991 ft 456 kts 232°
2026-05-04 15:49 33.91899 -95.83869 33989 ft 455 kts 232°
2026-05-04 15:50 33.87104 -95.88859 33989 ft 456 kts 232°
2026-05-04 15:50 33.82303 -95.93846 33992 ft 455 kts 232°
2026-05-04 15:51 33.77537 -95.98788 33992 ft 455 kts 232°
2026-05-04 15:51 33.72738 -96.03757 33992 ft 455 kts 232°
2026-05-04 15:52 33.67936 -96.08723 33991 ft 456 kts 232°
2026-05-04 15:52 33.63128 -96.13684 33991 ft 456 kts 232°
2026-05-04 15:53 33.58312 -96.18651 33990 ft 456 kts 232°
2026-05-04 15:53 33.53494 -96.23610 33989 ft 456 kts 233°
2026-05-04 15:54 33.48705 -96.28590 33992 ft 455 kts 233°
2026-05-04 15:54 33.43963 -96.33551 33989 ft 455 kts 233°
2026-05-04 15:55 33.39190 -96.38534 33990 ft 455 kts 233°
2026-05-04 15:55 33.34421 -96.43497 34001 ft 454 kts 233°
2026-05-04 15:56 33.29648 -96.48456 34003 ft 454 kts 233°
2026-05-04 15:56 33.24879 -96.53404 34002 ft 453 kts 233°
2026-05-04 15:57 33.20145 -96.58310 33999 ft 453 kts 233°
2026-05-04 15:57 33.15370 -96.63248 34002 ft 453 kts 233°
2026-05-04 15:58 33.10597 -96.68178 34001 ft 454 kts 233°
2026-05-04 15:58 33.05826 -96.73101 34002 ft 454 kts 233°
2026-05-04 15:59 33.01078 -96.77990 34007 ft 453 kts 233°
2026-05-04 15:59 32.96268 -96.82940 34010 ft 454 kts 233°
2026-05-04 16:00 32.91259 -96.87519 34001 ft 478 kts 218°
2026-05-04 16:00 32.89181 -96.88473 34012 ft 498 kts 208°
2026-05-04 16:01 32.86474 -96.89093 34013 ft 518 kts 197°
2026-05-04 16:01 32.82780 -96.88955 33991 ft 547 kts 179°
2026-05-04 16:01 32.75309 -96.86672 34008 ft 557 kts 174°
2026-05-04 16:02 32.67822 -96.84280 34000 ft 555 kts 175°
2026-05-04 16:03 32.56562 -96.81058 34000 ft 555 kts 176°
2026-05-04 16:03 32.49059 -96.78916 34003 ft 554 kts 176°
2026-05-04 16:04 32.41560 -96.76773 34012 ft 555 kts 176°
2026-05-04 16:04 32.30341 -96.73571 34022 ft 555 kts 176°
2026-05-04 16:05 32.22833 -96.71433 34024 ft 555 kts 176°
2026-05-04 16:06 32.11563 -96.68242 34024 ft 555 kts 176°
2026-05-04 16:07 31.96493 -96.63972 34028 ft 557 kts 176°
2026-05-04 16:08 31.81401 -96.59718 34047 ft 559 kts 176°
2026-05-04 16:09 31.62536 -96.54412 34048 ft 559 kts 176°
2026-05-04 16:10 31.47579 -96.49260 33949 ft 570 kts 159°
2026-05-04 16:11 31.37287 -96.42451 32098 ft 566 kts 158°
2026-05-04 16:11 31.33815 -96.40276 31361 ft 564 kts 158°
2026-05-04 16:12 31.23453 -96.33994 29349 ft 554 kts 158°
2026-05-04 16:12 31.13408 -96.27871 27714 ft 536 kts 158°
2026-05-04 16:13 31.06876 -96.23901 26876 ft 520 kts 158°
2026-05-04 16:13 31.00642 -96.20114 26673 ft 492 kts 158°
2026-05-04 16:14 30.94747 -96.16382 26279 ft 473 kts 156°
2026-05-04 16:14 30.89066 -96.12672 25476 ft 465 kts 156°
2026-05-04 16:15 30.81595 -96.07867 24394 ft 455 kts 156°
2026-05-04 16:16 30.76107 -96.04345 23657 ft 446 kts 156°
2026-05-04 16:16 30.68044 -95.99178 22419 ft 436 kts 156°
2026-05-04 16:17 30.62762 -95.95798 21671 ft 429 kts 156°
2026-05-04 16:18 30.55044 -95.90865 20505 ft 420 kts 156°
2026-05-04 16:18 30.52495 -95.89238 20127 ft 416 kts 156°
2026-05-04 16:19 30.45344 -95.83661 18940 ft 414 kts 141°
2026-05-04 16:19 30.41124 -95.79214 18281 ft 405 kts 142°
2026-05-04 16:20 30.34960 -95.73098 18017 ft 373 kts 143°
2026-05-04 16:20 30.31048 -95.69328 17633 ft 361 kts 144°
2026-05-04 16:21 30.25314 -95.63806 16639 ft 357 kts 143°
2026-05-04 16:22 30.21526 -95.60156 16032 ft 353 kts 143°
2026-05-04 16:22 30.15914 -95.54764 15107 ft 347 kts 143°
2026-05-04 16:23 30.10491 -95.49378 14164 ft 332 kts 129°
2026-05-04 16:24 30.09218 -95.39434 11232 ft 310 kts 87°
2026-05-04 16:25 30.09252 -95.34543 9998 ft 302 kts 89°
2026-05-04 16:26 30.09268 -95.25170 7977 ft 283 kts 91°
2026-05-04 16:26 30.09264 -95.18731 6440 ft 259 kts 92°
2026-05-04 16:27 30.09208 -95.14654 5900 ft 245 kts 95°
2026-05-04 16:28 30.09011 -95.09005 5006 ft 229 kts 96°
2026-05-04 16:28 30.08788 -95.03459 5000 ft 230 kts 96°
2026-05-04 16:29 30.04475 -95.00873 4994 ft 218 kts 219°
2026-05-04 16:30 30.02710 -95.05565 4369 ft 215 kts 251°
2026-05-04 16:31 30.01926 -95.08714 4167 ft 196 kts 250°
2026-05-04 16:31 30.00837 -95.13137 3447 ft 188 kts 256°
2026-05-04 16:32 30.00714 -95.17755 2687 ft 193 kts 266°
2026-05-04 16:33 30.00718 -95.20777 2183 ft 175 kts 266°
2026-05-04 16:33 30.00717 -95.23432 1767 ft 163 kts 266°
2026-05-04 16:34 30.00716 -95.26063 1305 ft 164 kts 267°
2026-05-04 16:34 30.00722 -95.27377 1051 ft 164 kts 268°
2026-05-04 16:35 30.00720 -95.31290 431 ft 163 kts 265°
2026-05-04 16:35 30.00717 -95.34806 111 ft 88 kts 270°
2026-05-04 16:36 30.00711 -95.35241 111 ft 23 kts 264°
2026-05-04 16:36 30.00567 -95.35490 111 ft 13 kts 147°
2026-05-04 16:37 30.00552 -95.35298 110 ft 12 kts 90°
2026-05-04 16:37 30.00552 -95.35201 111 ft 12 kts 90°
2026-05-04 16:37 30.00552 -95.35006 111 ft 12 kts 89°
2026-05-04 16:38 30.00553 -95.34811 109 ft 12 kts 90°
2026-05-04 16:39 30.00553 -95.34518 112 ft 12 kts 90°
2026-05-04 16:39 30.00553 -95.34324 112 ft 12 kts 90°
2026-05-04 16:40 30.00553 -95.34129 112 ft 12 kts 90°
2026-05-04 16:40 30.00553 -95.33934 111 ft 12 kts 89°
2026-05-04 16:41 30.00553 -95.33740 109 ft 12 kts 90°
2026-05-04 16:41 30.00553 -95.33351 109 ft 22 kts 90°
2026-05-04 16:42 30.00345 -95.32889 109 ft 22 kts 130°
2026-05-04 16:43 30.00146 -95.32618 110 ft 21 kts 130°
2026-05-04 16:43 30.00089 -95.32305 112 ft 21 kts 91°
2026-05-04 16:43 30.00090 -95.32139 112 ft 21 kts 89°
2026-05-04 16:44 30.00088 -95.31481 112 ft 15 kts 90°
2026-05-04 16:45 29.99984 -95.31397 110 ft 11 kts 180°
2026-05-04 16:46 29.99745 -95.31396 112 ft 11 kts 180°
2026-05-04 16:46 29.99586 -95.31395 110 ft 11 kts 180°
2026-05-04 16:47 29.99427 -95.31396 112 ft 11 kts 181°
2026-05-04 16:47 29.99370 -95.31251 109 ft 11 kts 90°
2026-05-04 16:48 29.99369 -95.31133 112 ft 2 kts 90°
2026-05-04 16:48 29.99369 -95.31114 110 ft 3 kts 90°
2026-05-04 16:49 29.99370 -95.31064 111 ft 5 kts 88°
2026-05-04 16:49 29.99308 -95.31027 112 ft 4 kts 181°
2026-05-04 16:50 29.99291 -95.31027 112 ft 0 kts 181°